CW5436 Weather Reports


time (UTC)temp
F
wind
direction
speed
knots
gust
knots
rain 1hr
in
rain 24hr
in
rain mn
in
humidity
%
barometer
mb
20260506204549 44 0.0 0.0 0.00 0.03 0.00 75 1013.7
20260506204045 44 0.0 0.0 0.00 0.03 0.00 75 1013.7
20260506203548 44 0.0 0.0 0.00 0.03 0.00 75 1013.7
20260506203043 44 0.0 0.0 0.00 0.03 0.00 75 1013.7
20260506202544 44 0.0 0.0 0.00 0.03 0.00 75 1013.9
20260506202044 44 0.0 0.0 0.00 0.03 0.00 75 1013.9
20260506201542 44 0.0 0.0 0.00 0.03 0.00 76 1013.9
20260506201041 44 0.0 0.0 0.00 0.03 0.00 75 1013.9
20260506200543 44 0.0 0.0 0.00 0.03 0.00 75 1014.0
20260506200140 44 0.0 0.0 0.00 0.03 0.00 74 1014.1
20260506195551 44 0.0 0.0 0.00 0.03 0.00 72 1014.1
20260506195055 44 0.0 0.0 0.00 0.03 0.00 71 1014.0
20260506194556 44 0.0 0.0 0.00 0.03 0.00 70 1014.0
20260506194049 44 0.0 0.0 0.00 0.03 0.00 69 1014.1
20260506193549 44 0.0 0.0 0.00 0.03 0.00 68 1014.1
20260506193053 44 0.0 0.0 0.00 0.03 0.00 68 1014.2
20260506192548 44 0.0 0.0 0.00 0.03 0.00 69 1014.2
20260506192051 44 0.0 0.0 0.00 0.03 0.00 71 1014.2
20260506191552 44 0.0 0.0 0.00 0.03 0.00 71 1014.2
20260506191048 44 0.0 0.0 0.00 0.03 0.00 70 1014.2
20260506190547 44 0.0 0.0 0.00 0.03 0.00 69 1014.3
20260506190147 45 0.0 0.0 0.00 0.03 0.00 69 1014.2
20260506185537 45 0.0 0.0 0.00 0.03 0.00 68 1014.2
20260506185036 45 0.0 0.0 0.00 0.03 0.00 69 1014.3
20260506184536 45 0.0 0.0 0.00 0.03 0.00 68 1014.4
20260506184036 46 0.0 0.0 0.00 0.03 0.00 67 1014.4
20260506183536 46 0.0 0.0 0.00 0.03 0.00 67 1014.4
20260506183035 46 0.0 0.0 0.00 0.03 0.00 66 1014.4
20260506182534 46 0.0 0.0 0.00 0.03 0.00 67 1014.4
20260506182034 46 0.0 0.0 0.00 0.03 0.00 67 1014.4
20260506181535 46 0.0 0.0 0.00 0.03 0.00 67 1014.4
20260506181035 46 0.0 0.0 0.00 0.03 0.00 66 1014.4
20260506180536 46 0.0 0.0 0.00 0.03 0.00 67 1014.5
20260506180135 46 0.0 0.0 0.00 0.03 0.00 67 1014.4
20260506175539 46 0.0 0.0 0.00 0.03 0.00 67 1014.4
20260506175039 46 0.0 0.0 0.00 0.03 0.00 67 1014.4
20260506174539 46 0.0 0.0 0.00 0.03 0.00 66 1014.4
20260506174039 46 0.0 0.0 0.00 0.03 0.00 66 1014.4
20260506173541 46 0.0 0.0 0.00 0.03 0.00 66 1014.4
20260506173042 46 0.0 0.0 0.00 0.03 0.00 67 1014.4
20260506172538 46 0.0 0.0 0.00 0.03 0.00 67 1014.4
20260506172039 46 0.0 0.0 0.00 0.03 0.00 68 1014.4
20260506171539 46 0.0 0.0 0.00 0.03 0.00 69 1014.4
20260506171038 46 0.0 0.0 0.00 0.03 0.00 68 1014.4
20260506170539 46 0.0 0.0 0.00 0.03 0.00 68 1014.5
20260506170138 46 0.0 0.0 0.00 0.03 0.00 67 1014.5
20260506165551 46 0.0 0.0 0.00 0.03 0.00 67 1014.5
20260506165050 46 0.0 0.0 0.00 0.03 0.00 66 1014.5
20260506164551 46 0.0 0.0 0.00 0.03 0.00 66 1014.5
20260506164050 47 0.0 0.0 0.00 0.03 0.00 66 1014.6
20260506163550 47 0.0 0.0 0.00 0.03 0.00 66 1014.6
20260506163053 47 0.0 0.0 0.00 0.03 0.00 68 1014.5
20260506162547 47 0.0 0.0 0.00 0.03 0.00 67 1014.6
20260506162047 47 0.0 0.0 0.00 0.03 0.00 65 1014.7
20260506161554 48 0.0 0.0 0.00 0.03 0.00 63 1014.7
20260506161046 48 0.0 0.0 0.00 0.03 0.00 63 1014.8
20260506160545 49 0.0 0.0 0.00 0.03 0.00 64 1014.8
20260506160147 49 0.0 0.0 0.00 0.03 0.00 63 1014.8
20260506155555 49 0.0 0.0 0.00 0.03 0.00 65 1014.9
20260506155054 49 0.0 0.0 0.00 0.03 0.00 65 1014.9
20260506154555 49 0.0 0.0 0.00 0.03 0.00 66 1014.9
20260506154054 48 0.0 0.0 0.00 0.03 0.00 66 1014.9
20260506153559 48 0.0 0.0 0.00 0.03 0.00 66 1014.9
20260506153057 48 0.0 0.0 0.00 0.03 0.00 66 1014.9
20260506152553 48 0.0 0.0 0.00 0.03 0.00 65 1015.0
20260506152053 49 0.0 0.0 0.00 0.03 0.00 66 1015.0
20260506151553 48 0.0 0.0 0.00 0.03 0.00 64 1015.0
20260506151052 48 0.0 0.0 0.00 0.03 0.00 67 1015.0
20260506150555 48 0.0 0.0 0.00 0.03 0.00 66 1015.1
20260506150153 48 0.0 0.0 0.00 0.03 0.00 66 1015.1
20260506145543 48 0.0 0.0 0.00 0.03 0.00 69 1015.2
20260506145042 48 0.0 0.0 0.00 0.03 0.00 68 1015.2
20260506144559 48 0.0 0.0 0.00 0.03 0.00 68 1015.2
20260506144042 48 0.0 0.0 0.00 0.03 0.00 67 1015.1
20260506143542 49 0.0 0.0 0.00 0.03 0.00 67 1015.2
20260506143042 48 0.0 0.0 0.00 0.03 0.00 68 1015.2
20260506142542 48 0.0 0.0 0.00 0.03 0.00 68 1015.3
20260506142040 48 0.0 0.0 0.00 0.03 0.00 67 1015.3
20260506141540 48 0.0 0.0 0.00 0.03 0.00 69 1015.4
20260506141040 48 0.0 0.0 0.00 0.03 0.00 68 1015.4
20260506140543 48 0.0 0.0 0.00 0.03 0.00 68 1015.4
20260506140140 48 0.0 0.0 0.00 0.03 0.00 68 1015.4
20260506135549 48 0.0 0.0 0.00 0.03 0.00 69 1015.4
20260506135049 48 0.0 0.0 0.00 0.03 0.00 67 1015.4
20260506134554 48 0.0 0.0 0.00 0.03 0.00 68 1015.4
20260506134049 48 0.0 0.0 0.00 0.03 0.00 69 1015.5
20260506133549 48 0.0 0.0 0.00 0.03 0.00 67 1015.5
20260506133053 48 0.0 0.0 0.00 0.03 0.00 68 1015.5
20260506132547 49 0.0 0.0 0.00 0.03 0.00 69 1015.5
20260506132048 48 0.0 0.0 0.00 0.03 0.00 68 1015.6
20260506131547 48 0.0 0.0 0.00 0.03 0.00 69 1015.6
20260506131047 48 0.0 0.0 0.00 0.03 0.00 67 1015.6
20260506130548 48 0.0 0.0 0.00 0.03 0.00 70 1015.6
20260506130146 48 0.0 0.0 0.00 0.03 0.00 68 1015.6
20260506125556 48 0.0 0.0 0.00 0.03 0.00 69 1015.7
20260506125056 49 0.0 0.0 0.00 0.03 0.00 69 1015.7
20260506124557 49 0.0 0.0 0.00 0.03 0.00 68 1015.6
20260506124057 49 0.0 0.0 0.00 0.03 0.00 70 1015.6
20260506123556 49 0.0 0.0 0.00 0.03 0.00 70 1015.7
20260506123056 49 0.0 0.0 0.00 0.03 0.00 69 1015.6
20260506122555 49 0.0 0.0 0.00 0.03 0.00 67 1015.6
20260506122057 49 0.0 0.0 0.00 0.03 0.00 69 1015.6
20260506121554 49 0.0 0.0 0.00 0.03 0.00 69 1015.6
20260506121053 49 0.0 0.0 0.00 0.03 0.00 67 1015.6
20260506120552 49 0.0 0.0 0.00 0.03 0.00 69 1015.7
20260506120151 48 0.0 0.0 0.00 0.03 0.00 69 1015.8
20260506115546 46 0.0 0.0 0.00 0.03 0.00 70 1015.8
20260506115042 47 0.0 0.0 0.00 0.03 0.00 71 1015.8
20260506114541 46 0.0 0.0 0.00 0.03 0.00 70 1015.8
20260506114040 46 0.0 0.0 0.00 0.03 0.00 72 1015.8
20260506113540 46 0.0 0.0 0.00 0.03 0.00 71 1015.8
20260506113040 46 0.0 0.0 0.00 0.03 0.00 68 1015.8
20260506112540 46 0.0 0.0 0.00 0.03 0.00 69 1015.8
20260506112043 46 0.0 0.0 0.00 0.03 0.00 68 1015.8
20260506111538 46 0.0 0.0 0.00 0.03 0.00 69 1015.7
20260506111039 46 0.0 0.0 0.00 0.03 0.00 69 1015.8
20260506110538 46 0.0 0.0 0.00 0.03 0.00 70 1015.7
20260506110139 45 0.0 0.0 0.00 0.03 0.00 70 1015.7
20260506105551 45 0.0 0.0 0.00 0.03 0.00 70 1015.7
20260506105053 45 0.0 0.0 0.00 0.03 0.00 69 1015.7
20260506104556 45 0.0 0.0 0.00 0.03 0.00 70 1015.8
20260506104050 45 0.0 0.0 0.00 0.03 0.00 70 1015.8
20260506103550 46 0.0 0.0 0.00 0.03 0.00 68 1015.8
20260506103049 46 0.0 0.0 0.00 0.03 0.00 70 1015.8
20260506102549 47 0.0 0.0 0.00 0.03 0.00 68 1015.8
20260506102047 47 0.0 0.0 0.00 0.03 0.00 70 1015.9
20260506101547 47 0.0 0.0 0.00 0.03 0.00 72 1016.0
20260506101049 46 0.0 0.0 0.00 0.03 0.00 71 1016.0
20260506100545 46 0.0 0.0 0.00 0.03 0.00 70 1016.0
20260506100145 46 0.0 0.0 0.00 0.03 0.00 71 1016.1
20260506095559 46 0.0 0.0 0.00 0.03 0.00 71 1016.1
20260506095059 46 0.0 0.0 0.00 0.03 0.00 71 1016.1
20260506094613 46 0.0 0.0 0.00 0.03 0.00 72 1016.1
20260506094102 46 0.0 0.0 0.00 0.03 0.00 70 1016.1
20260506093600 46 0.0 0.0 0.00 0.03 0.00 67 1016.2
20260506093058 46 0.0 0.0 0.00 0.03 0.00 68 1016.2
20260506092556 46 0.0 0.0 0.00 0.03 0.00 69 1016.2
20260506092056 46 0.0 0.0 0.00 0.03 0.00 70 1016.3
20260506091556 46 0.0 0.0 0.00 0.03 0.00 70 1016.3
20260506091056 46 0.0 0.0 0.00 0.03 0.00 70 1016.3
20260506090553 45 0.0 0.0 0.00 0.03 0.00 70 1016.3
20260506090152 45 0.0 0.0 0.00 0.03 0.00 73 1016.3
20260506085547 44 0.0 0.0 0.00 0.03 0.00 71 1016.4
20260506085050 45 0.0 0.0 0.00 0.03 0.00 71 1016.3
20260506084551 45 0.0 0.0 0.00 0.03 0.00 73 1016.3
20260506084047 45 0.0 0.0 0.00 0.03 0.00 73 1016.3
20260506083548 45 0.0 0.0 0.00 0.03 0.00 75 1016.4
20260506083048 44 0.0 0.0 0.00 0.03 0.00 78 1016.4
20260506082540 44 0.0 0.0 0.00 0.03 0.00 79 1016.4
20260506082041 43 0.0 0.0 0.00 0.03 0.00 78 1016.5
20260506081540 43 0.0 0.0 0.00 0.03 0.00 78 1016.4
20260506081039 42 0.0 0.0 0.00 0.03 0.00 79 1016.4
20260506080542 42 0.0 0.0 0.00 0.03 0.00 78 1016.4
20260506080140 43 0.0 0.0 0.00 0.03 0.00 78 1016.4
20260506073059 43 0.0 0.0 0.00 0.03 0.00 80 1016.3
20260506072546 43 0.0 0.0 0.00 0.03 0.00 80 1016.3
20260506072045 43 0.0 0.0 0.00 0.03 0.00 79 1016.3
20260506071545 43 0.0 0.0 0.00 0.03 0.00 81 1016.4
20260506071051 43 0.0 0.0 0.00 0.03 0.00 81 1016.4
20260506070544 43 0.0 0.0 0.00 0.03 0.00 81 1016.4
20260506062052 40 0.0 0.0 0.00 0.03 0.00 82 1016.5
20260506061552 40 359 0.0 0.0 0.00 0.03 0.00 82 1016.6
20260506061051 40 359 0.0 0.0 0.00 0.03 0.00 83 1016.6
20260506060552 40 359 0.0 0.0 0.00 0.03 0.00 82 1016.6
20260506060151 40 359 0.0 0.0 0.00 0.03 0.00 82 1016.7
20260506051041 39 359 0.0 0.0 0.00 0.03 0.00 88 1016.8
20260506050540 38 359 0.0 0.0 0.00 0.03 0.00 89 1016.9
20260506050139 38 359 0.0 0.0 0.00 0.03 0.00 88 1016.9
20260506045057 38 359 0.0 0.0 0.00 0.03 0.00 89 1016.9
20260506044555 38 359 0.0 0.0 0.00 0.03 0.00 90 1016.9
20260506044054 37 359 0.0 0.0 0.00 0.03 0.00 90 1016.8
20260506043553 37 359 0.0 0.0 0.00 0.03 0.00 90 1016.9
20260506043053 37 0.0 0.0 0.00 0.03 0.00 91 1016.9
20260506042552 37 0.0 0.0 0.00 0.03 0.00 91 1016.9
20260506042050 37 359 0.0 0.0 0.00 0.03 0.00 93 1016.9
20260506041554 36 359 0.0 0.0 0.00 0.03 0.00 94 1016.9
20260506041047 32 359 0.0 0.0 0.00 0.03 0.00 94 1016.9
20260506040546 30 0.0 0.0 0.00 0.03 0.00 91 1017.0
20260506040146 30 0.0 0.0 0.00 0.03 0.00 91 1016.9
20260506035542 30 359 0.0 0.0 0.00 0.03 0.00 89 1017.0
20260506035041 30 359 0.0 0.0 0.00 0.03 0.00 89 1017.0
20260506034546 31 359 0.0 0.0 0.00 0.03 0.00 91 1017.0
20260506034041 31 359 0.0 0.0 0.00 0.03 0.00 90 1017.1
20260506033540 31 0.0 0.0 0.00 0.03 0.00 90 1017.2
20260506033041 31 0.0 0.0 0.00 0.03 0.00 91 1017.2
20260506032535 31 0.0 0.0 0.00 0.03 0.00 92 1017.2
20260506032035 30 359 0.0 0.0 0.00 0.03 0.00 91 1017.2
20260506031535 30 359 0.0 0.0 0.00 0.03 0.00 91 1017.2
20260506031036 29 359 0.0 0.0 0.00 0.03 0.00 91 1017.3
20260506030535 29 359 0.0 0.0 0.00 0.03 0.00 90 1017.3
20260506030133 29 0.0 0.0 0.00 0.03 0.00 90 1017.3
20260506025542 29 359 0.0 0.0 0.00 0.03 0.00 91 1017.3
20260506025046 29 359 0.0 0.0 0.00 0.03 0.00 90 1017.3
20260506024545 29 0.0 0.0 0.00 0.03 0.00 90 1017.3
20260506024042 29 0.0 0.0 0.00 0.03 0.00 91 1017.3
20260506023541 29 359 0.0 0.0 0.00 0.03 0.00 91 1017.3
20260506023041 28 359 0.0 0.0 0.00 0.03 0.00 90 1017.4
20260506022539 28 359 0.0 0.0 0.00 0.03 0.00 90 1017.5
20260506022038 28 0.0 0.0 0.00 0.03 0.00 90 1017.5
20260506021547 28 359 0.0 0.0 0.00 0.03 0.00 90 1017.5
20260506021038 28 359 0.0 0.0 0.00 0.03 0.00 90 1017.6
20260506020537 28 0.0 0.0 0.00 0.03 0.00 89 1017.5
20260506020137 28 0.0 0.0 0.00 0.03 0.00 89 1017.5
20260506015556 29 359 0.0 0.0 0.00 0.03 0.00 89 1017.5
20260506015053 29 0.0 0.0 0.00 0.03 0.00 89 1017.5
20260506014552 29 0.0 0.0 0.00 0.03 0.00 90 1017.6
20260506014053 29 0.0 0.0 0.00 0.03 0.00 90 1017.6
20260506013551 29 359 0.0 0.0 0.00 0.03 0.00 89 1017.6
20260506013055 28 0.0 0.0 0.00 0.03 0.00 89 1017.6
20260506012549 28 359 0.0 0.0 0.00 0.03 0.00 89 1017.6
20260506012048 29 359 0.0 0.0 0.00 0.03 0.00 89 1017.7
20260506011609 29 0.0 0.0 0.00 0.03 0.00 89 1017.7
20260506011047 29 0.0 0.0 0.00 0.03 0.00 89 1017.7
20260506010546 29 359 0.0 0.0 0.00 0.03 0.00 89 1017.7
20260506010003 29 0.0 0.0 0.00 0.03 0.00 88 1017.8
20260506005502 29 359 0.0 0.0 0.00 0.03 0.00 88 1017.8
20260506005002 29 0.0 0.0 0.00 0.03 0.00 88 1017.8
20260506004600 29 359 0.0 0.0 0.00 0.03 0.00 88 1017.8
20260506004059 30 0.0 0.0 0.00 0.03 0.00 88 1017.9
20260506003559 30 359 0.0 0.0 0.00 0.03 0.00 89 1017.9
20260506003059 30 359 0.0 0.0 0.00 0.03 0.00 88 1017.8
20260506002557 30 359 0.0 0.0 0.00 0.03 0.00 88 1017.8
20260506002057 30 359 0.0 0.0 0.00 0.03 0.00 87 1017.9
20260506001558 31 359 0.0 0.0 0.00 0.03 0.00 87 1017.9
20260506001054 31 359 0.0 0.0 0.00 0.03 0.00 88 1017.9
20260506000553 32 359 0.0 0.0 0.00 0.03 0.00 88 1017.9
20260506000153 31 359 0.0 0.0 0.00 0.03 0.00 89 1017.9
20260505235551 31 359 0.0 0.0 0.00 0.03 0.00 88 1018.0
20260505235050 31 359 0.0 0.0 0.00 0.03 0.00 87 1018.0
20260505234550 31 359 0.0 0.0 0.00 0.03 0.00 87 1018.0
20260505234047 31 359 0.0 0.0 0.00 0.03 0.00 87 1018.0
20260505233547 31 359 0.0 0.0 0.00 0.03 0.00 86 1018.1
20260505233046 32 359 0.0 0.0 0.00 0.03 0.00 86 1018.1
20260505232548 32 359 0.0 0.0 0.00 0.03 0.00 86 1018.2
20260505232044 32 359 0.0 0.0 0.00 0.03 0.00 86 1018.2
20260505231544 33 359 0.0 0.0 0.00 0.03 0.00 86 1018.2
20260505231041 33 359 0.0 0.0 0.00 0.03 0.00 85 1018.2
20260505230540 33 359 0.0 0.0 0.01 0.03 0.00 85 1018.2
20260505230139 34 359 0.0 0.0 0.01 0.03 0.00 84 1018.3
20260505225548 34 359 0.0 0.0 0.01 0.03 0.03 83 1018.4
20260505225048 36 359 0.0 0.0 0.01 0.03 0.03 83 1018.4
20260505224548 37 359 0.0 0.0 0.01 0.03 0.03 85 1018.4
20260505224048 37 359 0.0 0.0 0.01 0.03 0.03 85 1018.4
20260505223547 37 359 0.0 0.0 0.01 0.03 0.03 85 1018.5
20260505223047 37 359 0.0 0.0 0.01 0.03 0.03 85 1018.6
20260505222546 37 359 0.0 0.0 0.01 0.03 0.03 86 1018.7
20260505222046 37 359 0.0 0.0 0.02 0.03 0.03 86 1018.8
20260505221557 37 359 0.0 0.0 0.03 0.03 0.03 86 1018.8
20260505221047 37 359 0.0 0.0 0.03 0.03 0.03 86 1018.8
20260505220546 37 359 0.0 0.0 0.02 0.02 0.02 86 1018.8
20260505220146 37 359 0.0 0.0 0.02 0.02 0.02 85 1018.9
20260505215553 37 359 0.0 0.0 0.02 0.02 0.02 86 1018.8
20260505215052 37 359 0.0 0.0 0.02 0.02 0.02 85 1018.7
20260505214554 37 359 0.0 0.0 0.02 0.02 0.02 85 1018.6
20260505214053 38 359 0.0 0.0 0.02 0.02 0.02 84 1018.6
20260505213551 38 359 0.0 0.0 0.02 0.02 0.02 84 1018.5
20260505213052 38 359 0.0 0.0 0.02 0.02 0.02 84 1018.6
20260505212551 38 359 0.0 0.0 0.02 0.02 0.02 84 1018.7
20260505212051 38 0.0 0.0 0.01 0.01 0.01 84 1018.6
20260505211551 39 0.0 0.0 0.00 0.00 0.00 84 1018.4
20260505211050 39 0.0 0.0 0.00 0.00 0.00 83 1018.4
20260505210551 38 0.0 0.0 0.00 0.00 0.00 84 1018.2
20260505210150 37 0.0 0.0 0.00 0.00 0.00 86 1018.2
20260505205547 34 0.0 0.0 0.00 0.00 0.00 81 1018.2
20260505205046 34 0.0 0.0 0.00 0.00 0.00 82 1018.2